Year,Month,Day,Hour,Minute,Value (Times are PST for temperature in C)
2018,01,13,15,41,9.60
2018,01,13,15,42,9.60
2018,01,13,15,43,9.60
2018,01,13,15,44,9.60
2018,01,13,15,45,9.60
2018,01,13,15,46,9.60
2018,01,13,15,47,9.60
2018,01,13,15,48,9.60
2018,01,13,15,49,9.70
2018,01,13,15,50,9.70
2018,01,13,15,51,9.70
2018,01,13,15,52,9.70
2018,01,13,15,53,9.70
2018,01,13,15,54,9.70
2018,01,13,15,55,9.70
2018,01,13,15,56,9.70
2018,01,13,15,57,9.80
2018,01,13,15,58,9.80
2018,01,13,15,59,9.80
2018,01,13,16,00,9.80
2018,01,13,16,01,9.80
2018,01,13,16,02,9.80
2018,01,13,16,03,9.80
2018,01,13,16,04,9.70
2018,01,13,16,05,9.70
2018,01,13,16,06,9.60
2018,01,13,16,07,9.60
2018,01,13,16,08,9.60
2018,01,13,16,09,9.50
2018,01,13,16,10,9.50
2018,01,13,16,11,9.50
2018,01,13,16,12,9.50
2018,01,13,16,13,9.50
2018,01,13,16,14,9.40
2018,01,13,16,15,9.40
2018,01,13,16,16,9.40
2018,01,13,16,17,9.40
2018,01,13,16,18,9.40
2018,01,13,16,19,9.40
2018,01,13,16,20,9.40
2018,01,13,16,21,9.30
2018,01,13,16,22,9.30
2018,01,13,16,23,9.30
2018,01,13,16,24,9.30
2018,01,13,16,25,9.20
2018,01,13,16,26,9.20
2018,01,13,16,27,9.10
2018,01,13,16,28,9.10
2018,01,13,16,29,9.10
2018,01,13,16,30,9.10
2018,01,13,16,31,9.00
2018,01,13,16,32,9.00
2018,01,13,16,33,9.00
2018,01,13,16,34,8.90
2018,01,13,16,35,8.90
2018,01,13,16,36,8.90
2018,01,13,16,37,8.90
2018,01,13,16,38,8.80
2018,01,13,16,39,8.80
2018,01,13,16,40,8.80
2018,01,13,16,41,8.80
2018,01,13,16,42,8.80
2018,01,13,16,43,8.70
2018,01,13,16,44,8.70
2018,01,13,16,45,8.70
2018,01,13,16,46,8.70
2018,01,13,16,47,8.70
2018,01,13,16,48,8.70
2018,01,13,16,49,8.70
2018,01,13,16,50,8.70
2018,01,13,16,51,8.70
2018,01,13,16,52,8.70
2018,01,13,16,53,8.70
2018,01,13,16,54,8.70
2018,01,13,16,55,8.70
2018,01,13,16,56,8.70
2018,01,13,16,57,8.70
